BEL2ET LPPT-EBBR

Flight info

Callsign BEL2ET
Flight time 2h 11m
Altitude 40000
Route IXIDA DCT TOSDI DCT ZMR DCT NUBLO DCT RONSI DCT DELOG DCT PEXOD DCT DIDIG DCT USODA DCT ERCUT DCT DITAL DCT ELCOB DCT PODEM DCT BAZOS DCT BELDI DCT VEKIN Z173 ARVOL
Aircraft A333/H-SDE3GHIJ2J3J5M1RVWXY/LB2D1

Departure

Time 2026-05-07 17:37
Airport Lisbon Humberto Delgado Airport (LPPT)

Arrival

Time 2026-05-07 19:48
Airport Brussels Airport (EBBR)
Time Latitude Longitude Altitude Speed Heading
2026-05-07 16:45 38.77609 -9.13196 335 ft 0 kts 78°
2026-05-07 16:47 38.77609 -9.13197 335 ft 0 kts 78°
2026-05-07 16:58 38.77609 -9.13198 341 ft 0 kts 78°
2026-05-07 17:10 38.77609 -9.13199 341 ft 0 kts 78°
2026-05-07 17:23 38.77608 -9.13202 336 ft 2 kts 78°
2026-05-07 17:24 38.77603 -9.13235 336 ft 4 kts 78°
2026-05-07 17:24 38.77598 -9.13265 335 ft 3 kts 79°
2026-05-07 17:24 38.77600 -9.13295 338 ft 4 kts 132°
2026-05-07 17:24 38.77621 -9.13312 353 ft 4 kts 163°
2026-05-07 17:25 38.77647 -9.13319 353 ft 4 kts 176°
2026-05-07 17:25 38.77658 -9.13320 351 ft 0 kts 180°
2026-05-07 17:28 38.77650 -9.13320 353 ft 5 kts 180°
2026-05-07 17:28 38.77602 -9.13319 353 ft 8 kts 179°
2026-05-07 17:28 38.77584 -9.13318 350 ft 0 kts 178°
2026-05-07 17:28 38.77567 -9.13315 350 ft 6 kts 172°
2026-05-07 17:29 38.77502 -9.13300 351 ft 12 kts 169°
2026-05-07 17:29 38.77431 -9.13282 347 ft 5 kts 167°
2026-05-07 17:29 38.77393 -9.13271 352 ft 6 kts 169°
2026-05-07 17:29 38.77331 -9.13297 354 ft 12 kts 233°
2026-05-07 17:30 38.77311 -9.13405 347 ft 12 kts 259°
2026-05-07 17:30 38.77297 -9.13502 356 ft 12 kts 258°
2026-05-07 17:30 38.77280 -9.13600 353 ft 11 kts 258°
2026-05-07 17:30 38.77263 -9.13712 363 ft 15 kts 258°
2026-05-07 17:31 38.77231 -9.13838 365 ft 14 kts 231°
2026-05-07 17:31 38.77131 -9.13900 365 ft 20 kts 203°
2026-05-07 17:31 38.76979 -9.13980 362 ft 26 kts 203°
2026-05-07 17:31 38.76826 -9.14062 352 ft 23 kts 203°
2026-05-07 17:32 38.76714 -9.14122 353 ft 16 kts 203°
2026-05-07 17:32 38.76614 -9.14175 350 ft 16 kts 202°
2026-05-07 17:32 38.76537 -9.14222 353 ft 10 kts 217°
2026-05-07 17:32 38.76527 -9.14271 347 ft 8 kts 282°
2026-05-07 17:33 38.76535 -9.14296 350 ft 0 kts 292°
2026-05-07 17:35 38.76555 -9.14357 335 ft 12 kts 294°
2026-05-07 17:35 38.76622 -9.14399 336 ft 11 kts 12°
2026-05-07 17:36 38.76646 -9.14388 335 ft 0 kts 23°
2026-05-07 17:36 38.76674 -9.14372 335 ft 20 kts 23°
2026-05-07 17:36 38.76998 -9.14199 359 ft 81 kts 23°
2026-05-07 17:36 38.77697 -9.13825 372 ft 136 kts 23°
2026-05-07 17:37 38.78682 -9.13266 647 ft 163 kts 22°
2026-05-07 17:37 38.79707 -9.12577 1440 ft 168 kts 22°
2026-05-07 17:37 38.80719 -9.11791 2231 ft 169 kts 26°
2026-05-07 17:37 38.81726 -9.10999 2779 ft 178 kts 25°
2026-05-07 17:38 38.82897 -9.10155 2988 ft 209 kts 25°
2026-05-07 17:38 38.84274 -9.09199 2986 ft 240 kts 26°
2026-05-07 17:38 38.85807 -9.08141 3263 ft 257 kts 25°
2026-05-07 17:38 38.87420 -9.07026 3792 ft 268 kts 26°
2026-05-07 17:39 38.89080 -9.05849 4424 ft 277 kts 30°
2026-05-07 17:39 38.90620 -9.04354 4918 ft 282 kts 41°
2026-05-07 17:39 38.92103 -9.02646 5695 ft 284 kts 44°
2026-05-07 17:39 38.93555 -9.00934 6510 ft 287 kts 45°
2026-05-07 17:40 38.95036 -8.99188 7320 ft 290 kts 45°
2026-05-07 17:40 38.96542 -8.97420 8118 ft 294 kts 44°
2026-05-07 17:40 38.98040 -8.95665 8919 ft 297 kts 44°
2026-05-07 17:40 38.99578 -8.93868 9591 ft 300 kts 44°
2026-05-07 17:41 39.01136 -8.92046 9874 ft 304 kts 44°
2026-05-07 17:41 39.02710 -8.90206 9910 ft 305 kts 44°
2026-05-07 17:41 39.04309 -8.88335 9918 ft 322 kts 44°
2026-05-07 17:41 39.06019 -8.86328 9918 ft 350 kts 44°
2026-05-07 17:42 39.07853 -8.84178 9912 ft 361 kts 44°
2026-05-07 17:42 39.09718 -8.81997 9956 ft 360 kts 44°
2026-05-07 17:42 39.11581 -8.79815 10264 ft 362 kts 44°
2026-05-07 17:42 39.13468 -8.77601 10925 ft 367 kts 44°
2026-05-07 17:43 39.15335 -8.75408 11714 ft 368 kts 44°
2026-05-07 17:43 39.17183 -8.73076 12420 ft 372 kts 48°
2026-05-07 17:43 39.18935 -8.70583 13135 ft 375 kts 50°
2026-05-07 17:43 39.20651 -8.68070 13784 ft 381 kts 51°
2026-05-07 17:44 39.22413 -8.65479 14416 ft 384 kts 50°
2026-05-07 17:44 39.24194 -8.62863 15025 ft 389 kts 50°
2026-05-07 17:44 39.25995 -8.60218 15618 ft 393 kts 50°
2026-05-07 17:44 39.27782 -8.57593 16258 ft 397 kts 50°
2026-05-07 17:45 39.29613 -8.54902 16869 ft 400 kts 50°
2026-05-07 17:45 39.31466 -8.52176 17479 ft 405 kts 49°
2026-05-07 17:45 39.33337 -8.49423 18059 ft 408 kts 49°
2026-05-07 17:45 39.35221 -8.46649 18595 ft 412 kts 49°
2026-05-07 17:46 39.37126 -8.43840 19058 ft 417 kts 49°
2026-05-07 17:46 39.39020 -8.41045 19550 ft 421 kts 49°
2026-05-07 17:46 39.40964 -8.38173 20032 ft 425 kts 49°
2026-05-07 17:46 39.42918 -8.35283 20519 ft 428 kts 49°
2026-05-07 17:47 39.44891 -8.32364 20956 ft 432 kts 48°
2026-05-07 17:47 39.46889 -8.29405 21423 ft 437 kts 49°
2026-05-07 17:47 39.48873 -8.26465 21842 ft 441 kts 49°
2026-05-07 17:47 39.50895 -8.23464 22266 ft 445 kts 48°
2026-05-07 17:48 39.52942 -8.20424 22822 ft 447 kts 49°
2026-05-07 17:48 39.54989 -8.17379 23301 ft 449 kts 49°
2026-05-07 17:48 39.56359 -8.15341 23547 ft 452 kts 48°
2026-05-07 17:48 39.58437 -8.12245 23813 ft 456 kts 48°
2026-05-07 17:49 39.60523 -8.09136 23879 ft 456 kts 48°
2026-05-07 17:49 39.62607 -8.06026 23929 ft 458 kts 48°
2026-05-07 17:49 39.64703 -8.02896 24257 ft 461 kts 48°
2026-05-07 17:49 39.66932 -7.99856 24635 ft 462 kts 41°
2026-05-07 17:50 39.69360 -7.97198 25026 ft 463 kts 37°
2026-05-07 17:50 39.71906 -7.94602 25383 ft 466 kts 35°
2026-05-07 17:50 39.74502 -7.92073 25786 ft 467 kts 34°
2026-05-07 17:50 39.77131 -7.89576 26183 ft 469 kts 34°
2026-05-07 17:51 39.79771 -7.87090 26667 ft 468 kts 33°
2026-05-07 17:51 39.82429 -7.84591 27034 ft 470 kts 33°
2026-05-07 17:51 39.85064 -7.82107 27354 ft 474 kts 33°
2026-05-07 17:51 39.87743 -7.79571 27686 ft 477 kts 33°
2026-05-07 17:52 39.90435 -7.77011 28008 ft 480 kts 33°
2026-05-07 17:52 39.93143 -7.74429 28356 ft 483 kts 33°
2026-05-07 17:52 39.95852 -7.71840 28663 ft 486 kts 33°
2026-05-07 17:52 39.98597 -7.69213 28993 ft 489 kts 33°
2026-05-07 17:53 40.01347 -7.66579 29339 ft 491 kts 33°
2026-05-07 17:53 40.04067 -7.63970 29681 ft 493 kts 33°
2026-05-07 17:53 40.06850 -7.61299 29998 ft 496 kts 33°
2026-05-07 17:53 40.09644 -7.58614 30264 ft 498 kts 32°
2026-05-07 17:54 40.12444 -7.55920 30563 ft 500 kts 32°
2026-05-07 17:54 40.15256 -7.53213 30836 ft 502 kts 32°
2026-05-07 17:54 40.18043 -7.50527 31111 ft 504 kts 32°
2026-05-07 17:54 40.20871 -7.47800 31447 ft 505 kts 32°
2026-05-07 17:55 40.23709 -7.45059 31867 ft 503 kts 32°
2026-05-07 17:55 40.26508 -7.42352 32303 ft 502 kts 32°
2026-05-07 17:55 40.29314 -7.39635 32708 ft 500 kts 32°
2026-05-07 17:55 40.32113 -7.36923 33088 ft 499 kts 32°
2026-05-07 17:56 40.34905 -7.34216 33444 ft 499 kts 32°
2026-05-07 17:56 40.37696 -7.31508 33788 ft 499 kts 32°
2026-05-07 17:56 40.40479 -7.28804 34077 ft 498 kts 32°
2026-05-07 17:56 40.43263 -7.26096 34419 ft 497 kts 32°
2026-05-07 17:57 40.46052 -7.23380 34712 ft 497 kts 31°
2026-05-07 17:57 40.47894 -7.21584 34902 ft 497 kts 31°
2026-05-07 17:57 40.51570 -7.17996 35335 ft 495 kts 31°
2026-05-07 17:57 40.54339 -7.15291 35610 ft 494 kts 31°
2026-05-07 17:58 40.57104 -7.12587 35838 ft 495 kts 31°
2026-05-07 17:58 40.59840 -7.09910 36068 ft 495 kts 31°
2026-05-07 17:58 40.62609 -7.07197 36325 ft 495 kts 31°
2026-05-07 17:58 40.65373 -7.04487 36549 ft 495 kts 31°
2026-05-07 17:59 40.68136 -7.01773 36794 ft 495 kts 31°
2026-05-07 17:59 40.70906 -6.99050 37073 ft 494 kts 31°
2026-05-07 17:59 40.73654 -6.96344 37385 ft 492 kts 31°
2026-05-07 17:59 40.76402 -6.93636 37629 ft 492 kts 31°
2026-05-07 18:00 40.79111 -6.90964 37842 ft 492 kts 31°
2026-05-07 18:00 40.81859 -6.88251 37988 ft 493 kts 31°
2026-05-07 18:00 40.84615 -6.85529 38252 ft 492 kts 31°
2026-05-07 18:00 40.87353 -6.82820 38543 ft 490 kts 31°
2026-05-07 18:01 40.90045 -6.80151 38828 ft 487 kts 31°
2026-05-07 18:01 40.92760 -6.77458 39005 ft 486 kts 32°
2026-05-07 18:01 40.95467 -6.74772 39200 ft 485 kts 32°
2026-05-07 18:01 40.98166 -6.72092 39382 ft 484 kts 32°
2026-05-07 18:02 41.03542 -6.66744 39620 ft 486 kts 32°
2026-05-07 18:02 41.06258 -6.64038 39721 ft 486 kts 32°
2026-05-07 18:02 41.08972 -6.61332 39837 ft 487 kts 32°
2026-05-07 18:03 41.11648 -6.58661 39866 ft 489 kts 32°
2026-05-07 18:03 41.17102 -6.53206 39879 ft 490 kts 33°
2026-05-07 18:04 41.22544 -6.47749 39868 ft 489 kts 33°
2026-05-07 18:04 41.27987 -6.42280 39867 ft 490 kts 33°
2026-05-07 18:05 41.33396 -6.36834 39868 ft 490 kts 33°
2026-05-07 18:05 41.38841 -6.31340 39869 ft 490 kts 33°
2026-05-07 18:06 41.44258 -6.25864 39871 ft 491 kts 33°
2026-05-07 18:06 41.49713 -6.20337 39873 ft 491 kts 33°
2026-05-07 18:07 41.55128 -6.14838 39872 ft 491 kts 33°
2026-05-07 18:07 41.60573 -6.09296 39873 ft 491 kts 33°
2026-05-07 18:08 41.66019 -6.03742 39873 ft 492 kts 33°
2026-05-07 18:08 41.71435 -5.98207 39870 ft 493 kts 33°
2026-05-07 18:09 41.76897 -5.92612 39874 ft 493 kts 33°
2026-05-07 18:09 41.82320 -5.87044 39870 ft 493 kts 33°
2026-05-07 18:10 41.87768 -5.81439 39871 ft 491 kts 33°
2026-05-07 18:10 41.93165 -5.75873 39871 ft 490 kts 33°
2026-05-07 18:11 41.98581 -5.70276 39874 ft 490 kts 33°
2026-05-07 18:11 42.03986 -5.64679 39864 ft 487 kts 33°
2026-05-07 18:12 42.09318 -5.59145 39878 ft 486 kts 33°
2026-05-07 18:12 42.14669 -5.53580 39871 ft 485 kts 33°
2026-05-07 18:13 42.19994 -5.48028 39877 ft 485 kts 33°
2026-05-07 18:13 42.25360 -5.42422 39879 ft 485 kts 34°
2026-05-07 18:14 42.30673 -5.36860 39885 ft 485 kts 34°
2026-05-07 18:14 42.36012 -5.31256 39886 ft 485 kts 34°
2026-05-07 18:15 42.41317 -5.25676 39882 ft 484 kts 34°
2026-05-07 18:15 42.46657 -5.20048 39882 ft 484 kts 34°
2026-05-07 18:16 42.51947 -5.14460 39880 ft 484 kts 34°
2026-05-07 18:16 42.57269 -5.08827 39886 ft 484 kts 34°
2026-05-07 18:17 42.62534 -5.03240 39897 ft 484 kts 34°
2026-05-07 18:17 42.68113 -4.98222 39889 ft 476 kts 22°
2026-05-07 18:18 42.74119 -4.94432 39895 ft 475 kts 20°
2026-05-07 18:18 42.80167 -4.90888 39901 ft 476 kts 19°
2026-05-07 18:19 42.86261 -4.87351 39920 ft 476 kts 19°
2026-05-07 18:19 42.92372 -4.83773 39910 ft 476 kts 20°
2026-05-07 18:20 42.98445 -4.80193 39904 ft 477 kts 20°
2026-05-07 18:20 43.04539 -4.76587 39901 ft 477 kts 20°
2026-05-07 18:21 43.10612 -4.72984 39903 ft 477 kts 20°
2026-05-07 18:21 43.16716 -4.69355 39905 ft 477 kts 20°
2026-05-07 18:22 43.22827 -4.65715 39902 ft 478 kts 20°
2026-05-07 18:22 43.28934 -4.62071 39894 ft 478 kts 20°
2026-05-07 18:23 43.35009 -4.58438 39903 ft 478 kts 21°
2026-05-07 18:23 43.41125 -4.54772 39887 ft 480 kts 20°
2026-05-07 18:24 43.47219 -4.51110 39886 ft 480 kts 20°
2026-05-07 18:24 43.53349 -4.47418 39884 ft 480 kts 21°
2026-05-07 18:25 43.59489 -4.43713 39883 ft 481 kts 21°
2026-05-07 18:25 43.65605 -4.40013 39884 ft 482 kts 21°
2026-05-07 18:26 43.71725 -4.36303 39883 ft 482 kts 21°
2026-05-07 18:26 43.77873 -4.32567 39887 ft 482 kts 21°
2026-05-07 18:27 43.84022 -4.28823 39883 ft 482 kts 21°
2026-05-07 18:27 43.90127 -4.25097 39889 ft 481 kts 21°
2026-05-07 18:28 43.96244 -4.21355 39898 ft 481 kts 21°
2026-05-07 18:28 44.02373 -4.17598 39896 ft 481 kts 21°
2026-05-07 18:29 44.08521 -4.13820 39897 ft 481 kts 21°
2026-05-07 18:29 44.14627 -4.10059 39895 ft 481 kts 21°
2026-05-07 18:30 44.20762 -4.06272 39903 ft 481 kts 22°
2026-05-07 18:30 44.26858 -4.02501 39906 ft 481 kts 22°
2026-05-07 18:31 44.32907 -3.98477 39907 ft 483 kts 30°
2026-05-07 18:31 44.38551 -3.93367 39912 ft 483 kts 32°
2026-05-07 18:32 44.44070 -3.88066 39918 ft 483 kts 33°
2026-05-07 18:32 44.49612 -3.82671 39905 ft 484 kts 33°
2026-05-07 18:33 44.55143 -3.77291 39921 ft 484 kts 33°
2026-05-07 18:33 44.60666 -3.71924 39914 ft 484 kts 33°
2026-05-07 18:34 44.66217 -3.66523 39917 ft 484 kts 33°
2026-05-07 18:34 44.71716 -3.61161 39922 ft 484 kts 33°
2026-05-07 18:35 44.77262 -3.55739 39918 ft 484 kts 33°
2026-05-07 18:35 44.81873 -3.51221 39922 ft 484 kts 33°
2026-05-07 18:36 44.87414 -3.45780 39924 ft 484 kts 33°
2026-05-07 18:36 44.92924 -3.40356 39922 ft 485 kts 33°
2026-05-07 18:37 44.98464 -3.34890 39925 ft 485 kts 33°
2026-05-07 18:37 45.04000 -3.29414 39927 ft 485 kts 33°
2026-05-07 18:38 45.09501 -3.23960 39927 ft 485 kts 33°
2026-05-07 18:38 45.15037 -3.18458 39946 ft 485 kts 33°
2026-05-07 18:39 45.20544 -3.12972 39934 ft 485 kts 33°
2026-05-07 18:39 45.26043 -3.07480 39932 ft 484 kts 33°
2026-05-07 18:40 45.31571 -3.01945 39939 ft 486 kts 34°
2026-05-07 18:40 45.37043 -2.96357 39944 ft 486 kts 34°
2026-05-07 18:41 45.42517 -2.90694 39938 ft 486 kts 34°
2026-05-07 18:41 45.47994 -2.85015 39945 ft 486 kts 34°
2026-05-07 18:42 45.53437 -2.79368 39944 ft 486 kts 34°
2026-05-07 18:42 45.58906 -2.73685 39948 ft 485 kts 34°
2026-05-07 18:43 45.64355 -2.68010 39949 ft 486 kts 34°
2026-05-07 18:43 45.69847 -2.62276 39947 ft 487 kts 34°
2026-05-07 18:44 45.75289 -2.56579 39963 ft 487 kts 34°
2026-05-07 18:44 45.80758 -2.50839 39953 ft 486 kts 34°
2026-05-07 18:45 45.86231 -2.45081 39954 ft 486 kts 34°
2026-05-07 18:45 45.91649 -2.39367 39958 ft 486 kts 34°
2026-05-07 18:46 45.97107 -2.33597 39958 ft 487 kts 35°
2026-05-07 18:46 46.02550 -2.27827 39959 ft 488 kts 35°
2026-05-07 18:47 46.08082 -2.22155 39963 ft 487 kts 32°
2026-05-07 18:47 46.13767 -2.16794 39961 ft 487 kts 31°
2026-05-07 18:48 46.19467 -2.11482 39962 ft 487 kts 31°
2026-05-07 18:48 46.25113 -2.06163 39960 ft 487 kts 32°
2026-05-07 18:49 46.30791 -2.00765 39957 ft 487 kts 32°
2026-05-07 18:49 46.36464 -1.95348 39960 ft 488 kts 32°
2026-05-07 18:50 46.42111 -1.89943 39960 ft 488 kts 32°
2026-05-07 18:50 46.47756 -1.84528 39963 ft 488 kts 32°
2026-05-07 18:51 46.53439 -1.79063 39964 ft 488 kts 32°
2026-05-07 18:51 46.59104 -1.73603 39965 ft 488 kts 32°
2026-05-07 18:52 46.64742 -1.68154 39965 ft 488 kts 32°
2026-05-07 18:52 46.70413 -1.62658 39965 ft 488 kts 32°
2026-05-07 18:53 46.76033 -1.57199 39966 ft 488 kts 32°
2026-05-07 18:53 46.81711 -1.51670 39966 ft 488 kts 32°
2026-05-07 18:54 46.87343 -1.46170 39964 ft 488 kts 32°
2026-05-07 18:54 46.93004 -1.40629 39964 ft 488 kts 32°
2026-05-07 18:55 46.98293 -1.34472 39969 ft 490 kts 44°
2026-05-07 18:55 47.02988 -1.27200 39968 ft 490 kts 47°
2026-05-07 18:56 47.07548 -1.19732 39967 ft 491 kts 47°
2026-05-07 18:56 47.12065 -1.12260 39968 ft 491 kts 47°
2026-05-07 18:57 47.16632 -1.04721 39966 ft 491 kts 47°
2026-05-07 18:57 47.21155 -0.97261 39969 ft 490 kts 47°
2026-05-07 18:58 47.25701 -0.89751 39971 ft 490 kts 47°
2026-05-07 18:58 47.30235 -0.82239 39968 ft 490 kts 47°
2026-05-07 18:59 47.34750 -0.74734 39974 ft 492 kts 47°
2026-05-07 18:59 47.39293 -0.67163 39984 ft 492 kts 47°
2026-05-07 19:00 47.43944 -0.59742 39984 ft 491 kts 40°
2026-05-07 19:00 47.49263 -0.53429 39989 ft 490 kts 36°
2026-05-07 19:01 47.54579 -0.47195 39994 ft 490 kts 38°
2026-05-07 19:01 47.59840 -0.40734 40002 ft 490 kts 38°
2026-05-07 19:02 47.65058 -0.34311 39993 ft 489 kts 38°
2026-05-07 19:02 47.70307 -0.27881 39992 ft 489 kts 38°
2026-05-07 19:03 47.75576 -0.21432 39989 ft 489 kts 38°
2026-05-07 19:03 47.80794 -0.15033 39996 ft 489 kts 38°
2026-05-07 19:04 47.86046 -0.08572 39989 ft 488 kts 38°
2026-05-07 19:04 47.91288 -0.02106 39990 ft 488 kts 38°
2026-05-07 19:05 47.96494 0.04336 39991 ft 489 kts 38°
2026-05-07 19:05 48.01745 0.10850 40005 ft 489 kts 39°
2026-05-07 19:06 48.06960 0.17337 39992 ft 489 kts 39°
2026-05-07 19:06 48.14816 0.27142 39995 ft 489 kts 39°
2026-05-07 19:07 48.20049 0.33698 39996 ft 489 kts 39°
2026-05-07 19:07 48.25253 0.40233 40004 ft 490 kts 39°
2026-05-07 19:08 48.30487 0.46824 40004 ft 490 kts 39°
2026-05-07 19:08 48.35693 0.53399 40005 ft 490 kts 39°
2026-05-07 19:09 48.40915 0.60012 40007 ft 490 kts 39°
2026-05-07 19:09 48.46107 0.66605 40008 ft 490 kts 39°
2026-05-07 19:10 48.51336 0.73264 40012 ft 490 kts 39°
2026-05-07 19:10 48.56518 0.79882 40015 ft 490 kts 39°
2026-05-07 19:11 48.61729 0.86554 40015 ft 490 kts 39°
2026-05-07 19:11 48.66928 0.93230 40020 ft 490 kts 39°
2026-05-07 19:12 48.72099 0.99890 40018 ft 489 kts 39°
2026-05-07 19:12 48.77294 1.06598 40019 ft 489 kts 39°
2026-05-07 19:13 48.82454 1.13280 40019 ft 489 kts 39°
2026-05-07 19:13 48.87635 1.20009 40020 ft 489 kts 39°
2026-05-07 19:14 48.92818 1.26759 40020 ft 489 kts 39°
2026-05-07 19:14 48.97960 1.33475 40015 ft 490 kts 39°
2026-05-07 19:15 49.03137 1.40256 40022 ft 490 kts 39°
2026-05-07 19:15 49.08286 1.47018 40028 ft 490 kts 39°
2026-05-07 19:16 49.13457 1.53830 40023 ft 490 kts 40°
2026-05-07 19:16 49.18596 1.60618 40029 ft 489 kts 40°
2026-05-07 19:17 49.23748 1.67444 40032 ft 489 kts 40°
2026-05-07 19:17 49.28912 1.74305 40037 ft 489 kts 40°
2026-05-07 19:18 49.34018 1.81107 40041 ft 489 kts 40°
2026-05-07 19:18 49.39162 1.87981 40047 ft 489 kts 40°
2026-05-07 19:19 49.43435 1.93705 40048 ft 489 kts 40°
2026-05-07 19:19 49.48575 2.00609 40048 ft 489 kts 40°
2026-05-07 19:20 49.53706 2.07522 40047 ft 490 kts 40°
2026-05-07 19:20 49.58805 2.14411 40049 ft 490 kts 40°
2026-05-07 19:21 49.63916 2.21336 40050 ft 490 kts 40°
2026-05-07 19:21 49.69036 2.28294 40051 ft 490 kts 40°
2026-05-07 19:22 49.71593 2.31777 39648 ft 491 kts 40°
2026-05-07 19:22 49.74147 2.35260 38909 ft 497 kts 40°
2026-05-07 19:22 49.76750 2.38814 38184 ft 500 kts 40°
2026-05-07 19:22 49.79368 2.42396 37531 ft 499 kts 40°
2026-05-07 19:23 49.81973 2.45966 36917 ft 499 kts 40°
2026-05-07 19:23 49.84569 2.49528 36267 ft 498 kts 40°
2026-05-07 19:23 49.87168 2.53100 35596 ft 499 kts 40°
2026-05-07 19:23 49.89773 2.56685 34859 ft 501 kts 40°
2026-05-07 19:24 49.92362 2.60253 34096 ft 504 kts 40°
2026-05-07 19:24 49.94983 2.63870 33370 ft 503 kts 40°
2026-05-07 19:24 49.97607 2.67498 32452 ft 505 kts 40°
2026-05-07 19:24 50.00248 2.71155 31590 ft 504 kts 40°
2026-05-07 19:25 50.02810 2.74709 30790 ft 494 kts 40°
2026-05-07 19:25 50.05327 2.78208 30266 ft 473 kts 41°
2026-05-07 19:25 50.07741 2.81569 29737 ft 455 kts 41°
2026-05-07 19:25 50.10033 2.84765 29176 ft 438 kts 40°
2026-05-07 19:26 50.12294 2.87920 28681 ft 434 kts 40°
2026-05-07 19:26 50.14546 2.91063 28171 ft 435 kts 40°
2026-05-07 19:26 50.16802 2.94215 27650 ft 433 kts 40°
2026-05-07 19:26 50.19029 2.97331 27151 ft 430 kts 40°
2026-05-07 19:27 50.21225 3.00408 26629 ft 428 kts 40°
2026-05-07 19:27 50.23439 3.03515 26105 ft 425 kts 41°
2026-05-07 19:27 50.25636 3.06603 25589 ft 422 kts 41°
2026-05-07 19:27 50.27815 3.09670 25067 ft 419 kts 41°
2026-05-07 19:28 50.29978 3.12718 24559 ft 417 kts 41°
2026-05-07 19:28 50.32129 3.15754 24045 ft 414 kts 41°
2026-05-07 19:28 50.34265 3.18771 23508 ft 412 kts 41°
2026-05-07 19:28 50.36388 3.21774 22945 ft 409 kts 41°
2026-05-07 19:29 50.38486 3.24745 22427 ft 405 kts 41°
2026-05-07 19:29 50.40557 3.27725 22121 ft 412 kts 43°
2026-05-07 19:29 50.42628 3.30905 22078 ft 418 kts 44°
2026-05-07 19:29 50.44699 3.34145 22072 ft 419 kts 44°
2026-05-07 19:30 50.46753 3.37392 21813 ft 418 kts 45°
2026-05-07 19:30 50.48645 3.40790 21521 ft 417 kts 50°
2026-05-07 19:30 50.50427 3.44398 21230 ft 416 kts 52°
2026-05-07 19:30 50.52179 3.48011 20945 ft 414 kts 52°
2026-05-07 19:31 50.53920 3.51608 20662 ft 412 kts 52°
2026-05-07 19:31 50.55659 3.55203 20384 ft 410 kts 52°
2026-05-07 19:31 50.57370 3.58742 20106 ft 409 kts 52°
2026-05-07 19:31 50.58826 3.61754 19877 ft 407 kts 52°
2026-05-07 19:32 50.60534 3.65287 19615 ft 405 kts 52°
2026-05-07 19:32 50.62240 3.68818 19343 ft 403 kts 52°
2026-05-07 19:32 50.63934 3.72325 19077 ft 402 kts 52°
2026-05-07 19:32 50.65626 3.75830 18810 ft 400 kts 52°
2026-05-07 19:33 50.67310 3.79318 18526 ft 398 kts 52°
2026-05-07 19:33 50.68988 3.82797 18138 ft 396 kts 52°
2026-05-07 19:33 50.70634 3.86205 17736 ft 394 kts 52°
2026-05-07 19:33 50.72291 3.89634 17321 ft 391 kts 52°
2026-05-07 19:34 50.73943 3.93047 16926 ft 389 kts 52°
2026-05-07 19:34 50.75585 3.96436 16544 ft 386 kts 52°
2026-05-07 19:34 50.77193 3.99752 16167 ft 384 kts 52°
2026-05-07 19:34 50.78820 4.03105 15772 ft 382 kts 52°
2026-05-07 19:35 50.80438 4.06434 15385 ft 379 kts 52°
2026-05-07 19:35 50.82044 4.09731 14985 ft 377 kts 52°
2026-05-07 19:35 50.83618 4.12954 14566 ft 370 kts 52°
2026-05-07 19:35 50.85171 4.16131 14040 ft 358 kts 52°
2026-05-07 19:36 50.86665 4.19182 13462 ft 343 kts 52°
2026-05-07 19:36 50.88098 4.22108 12873 ft 330 kts 52°
2026-05-07 19:36 50.89468 4.24910 12296 ft 320 kts 52°
2026-05-07 19:36 50.90809 4.27658 11745 ft 310 kts 52°
2026-05-07 19:37 50.92117 4.30343 11167 ft 303 kts 52°
2026-05-07 19:37 50.93394 4.32969 10639 ft 299 kts 52°
2026-05-07 19:37 50.94646 4.35549 10106 ft 297 kts 52°
2026-05-07 19:37 50.95903 4.38145 9531 ft 295 kts 52°
2026-05-07 19:38 50.97154 4.40722 8939 ft 292 kts 52°
2026-05-07 19:38 50.98395 4.43268 8364 ft 290 kts 52°
2026-05-07 19:38 50.99628 4.45790 7799 ft 288 kts 52°
2026-05-07 19:38 51.00847 4.48275 7240 ft 283 kts 52°
2026-05-07 19:39 51.02039 4.50724 6693 ft 278 kts 56°
2026-05-07 19:39 51.02920 4.53417 6132 ft 273 kts 69°
2026-05-07 19:39 51.03551 4.56246 5549 ft 269 kts 72°
2026-05-07 19:39 51.04129 4.59021 5020 ft 265 kts 72°
2026-05-07 19:40 51.04701 4.61789 4505 ft 262 kts 72°
2026-05-07 19:40 51.05264 4.64526 3984 ft 259 kts 72°
2026-05-07 19:40 51.05822 4.67242 3476 ft 258 kts 72°
2026-05-07 19:40 51.06344 4.69962 2961 ft 256 kts 79°
2026-05-07 19:41 51.06271 4.72750 2529 ft 253 kts 105°
2026-05-07 19:41 51.05687 4.75368 2214 ft 246 kts 111°
2026-05-07 19:41 51.05048 4.77800 2030 ft 229 kts 112°
2026-05-07 19:41 51.04442 4.80064 2011 ft 222 kts 112°
2026-05-07 19:42 51.03839 4.82313 2006 ft 222 kts 112°
2026-05-07 19:42 51.03206 4.84555 1997 ft 222 kts 119°
2026-05-07 19:42 51.02095 4.86252 1999 ft 224 kts 152°
2026-05-07 19:42 51.00604 4.86716 1989 ft 219 kts 185°
2026-05-07 19:43 50.99247 4.85962 1982 ft 198 kts 208°
2026-05-07 19:43 50.98108 4.84850 2001 ft 189 kts 212°
2026-05-07 19:43 50.97185 4.83392 1996 ft 189 kts 236°
2026-05-07 19:43 50.96615 4.81517 1999 ft 189 kts 249°
2026-05-07 19:44 50.96174 4.79583 1999 ft 189 kts 250°
2026-05-07 19:44 50.95730 4.77622 1998 ft 189 kts 250°
2026-05-07 19:44 50.95280 4.75671 1998 ft 189 kts 249°
2026-05-07 19:44 50.94823 4.73710 1999 ft 189 kts 249°
2026-05-07 19:45 50.94369 4.71758 1997 ft 189 kts 250°
2026-05-07 19:45 50.93915 4.69796 1999 ft 189 kts 250°
2026-05-07 19:45 50.93471 4.67868 1992 ft 188 kts 250°
2026-05-07 19:45 50.93020 4.65901 1981 ft 189 kts 249°
2026-05-07 19:46 50.92581 4.63989 1762 ft 181 kts 249°
2026-05-07 19:46 50.92162 4.62173 1494 ft 168 kts 249°
2026-05-07 19:46 50.91776 4.60496 1295 ft 155 kts 250°
2026-05-07 19:46 50.91419 4.58945 1070 ft 144 kts 250°
2026-05-07 19:47 50.91115 4.57625 894 ft 140 kts 250°
2026-05-07 19:47 50.90799 4.56172 721 ft 139 kts 251°
2026-05-07 19:47 50.90459 4.54727 504 ft 139 kts 250°
2026-05-07 19:47 50.90125 4.53295 326 ft 138 kts 250°
2026-05-07 19:48 50.89788 4.51873 199 ft 135 kts 250°
2026-05-07 19:48 50.89499 4.50612 179 ft 101 kts 250°
2026-05-07 19:48 50.89324 4.49864 181 ft 49 kts 250°
2026-05-07 19:48 50.89234 4.49428 179 ft 34 kts 264°
2026-05-07 19:49 50.89306 4.49167 173 ft 14 kts 309°
2026-05-07 19:49 50.89378 4.49115 169 ft 13 kts
2026-05-07 19:49 50.89472 4.49151 165 ft 15 kts 14°
2026-05-07 19:49 50.89560 4.49190 161 ft 14 kts 22°
2026-05-07 19:50 50.89655 4.49266 155 ft 18 kts 13°
2026-05-07 19:50 50.89788 4.49322 147 ft 23 kts 14°
2026-05-07 19:50 50.89954 4.49391 137 ft 25 kts 14°
2026-05-07 19:50 50.90109 4.49453 132 ft 23 kts 14°
2026-05-07 19:51 50.90269 4.49519 125 ft 23 kts 14°
2026-05-07 19:51 50.90409 4.49572 128 ft 16 kts
2026-05-07 19:51 50.90456 4.49490 124 ft 9 kts 256°
2026-05-07 19:51 50.90425 4.49394 125 ft 11 kts 245°
2026-05-07 19:52 50.90395 4.49294 123 ft 7 kts 245°
2026-05-07 19:52 50.90397 4.49212 122 ft 9 kts 294°
2026-05-07 19:52 50.90428 4.49126 121 ft 4 kts 301°
2026-05-07 19:52 50.90432 4.49115 121 ft 0 kts 301°